www.pogodaiklimat.ru

Погода и климат >> Архив погоды >> Казахстан >> Жангизтобе


ПОГОДА в Жангизтобе

  • Прогноз погоды в Жангизтобе
  • Монитор погоды в Жангизтобе
  • Климат города

АРХИВ ПОГОДЫ в Жангизтобе

Время (UTC), дата Ветер
(напр.,м/с)
 
Видим.   Явления Облачность Т
(С)
Тd
(С)
f
(%)
Тe
(С)
Тes
(С)
Комфортность P
(гПа)
Po
(гПа)
Тmin
(С)
Tmax
(С)
R
(мм)
R24
(мм)
S
(см)
09 13.08 С 3 50 км 8/8 1000 м
[Sc]
+18.8 +0.7 30 +19 +21 1016.6 964.5
12 13.08 С 7 50 км 6/6 1000 м
[Sc]
+18.9 +1.8 32 +18 +19 1016.3 964.3
15 13.08 С 2 н/о 3/0
[Ac lent]
+14.9 +2.9 44 +15 +15 1017.6 964.8 +19.8
18 13.08 Ю 2 н/о ясно +9.4 +4.6 72 +8 +8 1018.4 964.6 +19.8
21 13.08 ЮЗ 1 н/о 8/0
[Ac lent Ci fib]
+8.6 +4.6 76 +8 +8 1018.8 964.8
00 14.08 ЮВ 2 50 км 3/0
[Ac lent]
+5.9 +2.6 79 +4 +4 1019.2 964.7
03 14.08 В 1 50 км 1/0
[Ci fib]
+15.9 +3.2 43 +17 +25 1017.8 965.2
06 14.08 С 2 50 км 3/0
[Ci fib]
+20.7 -0.1 25 +21 +35 комфорт 1015.7 964.0 +5.0
09 14.08 СВ 3 50 км 4/0
[Ci fib]
+22.0 -1.3 21 +21 +29 комфорт 1014.5 963.1
12 14.08 С 2 50 км 4/0
[Ci fib]
+21.0 -0.2 24 +22 +23 комфорт 1014.9 963.3
15 14.08 С 3 н/о 3/0
[Ci fib]
+15.4 +3.9 46 +15 +15 1016.6 964.0 +23.2
18 14.08 С 1 н/о ясно +11.3 +4.6 63 +11 +11 1016.9 963.5 +23.2
21 14.08 штиль 0 н/о ясно +8.1 +3.8 74 +7 +7 1016.4 962.4
00 15.08 З 1 50 км ясно +8.7 +5.0 78 +8 +8 1015.7 961.9
03 15.08 З 1 50 км ясно +11.0 +5.0 66 +11 +19 1014.7 961.4
06 15.08 СЗ 2 50 км 3/0
[Ci fib]
+18.8 +8.6 51 +20 +33 опасность
простуды
1012.2 960.4 +7.8
09 15.08 СЗ 2 50 км 4/0
[Ci fib]
+22.7 +3.8 29 +23 +32 комфорт 1010.3 959.2
12 15.08 С 1 50 км 6/0
[Ac lent Ci fib]
+24.1 +3.7 27 +24 +25 комфорт 1009.7 958.9
15 15.08 СВ 5 н/о 8/0
[Ac trans Ci fib]
+18.2 +7.6 50 +18 +18 1011.1 959.3 +25.3
18 15.08 С 4 н/о 3/0
[Ci fib]
+13.3 +5.8 60 +12 +12 1014.2 961.3 +25.3
21 15.08 СЗ 3 н/о 3/0
[Ac lent]
+11.3 +5.1 66 +10 +10 1014.5 961.2
00 16.08 З 2 50 км 8/6 1000 м
[Sc Ci fib]
+9.0 +7.1 88 +7 +7 1014.6 960.9
03 16.08 СЗ 2 50 км 10/10 1000 м
[Sc]
+12.0 +8.0 76 +11 +11 1014.6 961.5
06 16.08 С 3 50 км 6/6 1000 м
[Sc]
+16.2 +8.5 60 +16 +21 1013.6 961.3 +8.6
09 16.08 С 3 50 км 8/8 1000 м
[Sc]
+20.4 +7.9 44 +22 +24 комфорт 1011.9 960.4
12 16.08 С 4 50 км 3/3 1000 м
[Cu hum]
+21.8 +5.8 35 +22 +23 комфорт 1012.0 960.7
15 16.08 С 3 н/о 1/1 1000 м
[Sc diur, vesp]
+17.8 +6.3 47 +18 +18 1014.5 962.4 +22.8
18 16.08 СЗ 2 н/о ясно +14.5 +6.9 60 +14 +14 1015.0 962.3 +22.8
21 16.08 СЗ 1 н/о 4/4 1000 м
[Sc]
+12.4 +7.6 73 +13 +13 1014.7 961.7
00 17.08 З 1 50 км 3/3 1000 м
[Sc]
+10.2 +7.1 81 +10 +10 1015.7 962.2
03 17.08 СЗ 1 50 км ясно +14.3 +2.9 46 +15 +23 1014.9 962.1
06 17.08 С 1 50 км 6/0
[Ci sp]
+19.7 +6.1 41 +21 +36 комфорт 1013.1 961.4 +10.0
09 17.08 СВ 3 50 км 8/0
[Ac trans Ci sp]
+24.2 +8.2 36 +25 +31 комфорт 1011.4 960.6
12 17.08 С 4 50 км 8/4 1000 м
[Sc Ci sp]
+24.6 +7.4 33 +25 +25 комфорт 1010.6 959.9
15 17.08 СЗ 3 н/о 6/6 1000 м
[Sc]
+18.7 +6.8 46 +19 +19 1014.9 963.0 +25.4
18 17.08 СЗ 1 н/о 3/0
[Ac lent]
+16.0 +7.3 56 +17 +17 1015.4 963.0 +25.4
21 17.08 З 2 н/о 3/0
[Ci fib]
+13.7 +8.4 70 +13 +13 1016.2 963.3
00 18.08 СЗ 1 50 км 3/0
[Ac trans]
+11.0 +6.4 73 +11 +11 1016.3 962.9
03 18.08 З 3 50 км 6/0
[Ac und]
+17.9 +6.1 46 +18 +21 1015.8 963.7
06 18.08 С 3 50 км 6/6 1000 м
[Cu med, cong]
+22.0 +5.8 35 +23 +27 комфорт 1014.3 962.9 +10.0
09 18.08 С 4 50 км 8/8 1000 м
[Cb calv]
+24.5 +5.3 29 +24 +26 комфорт 1013.0 962.1
12 18.08 З 5 50 км 8/8 1000 м
[Cb calv]
+18.0 +9.2 56 +18 +18 1015.9 963.8
15 18.08 З 2 н/о 3/3 1000 м
[Sc]
+17.0 +12.4 74 +17 +17 1016.9 964.6 +25.5
18 18.08 ЮЗ 1 н/о ясно +14.5 +10.8 78 +15 +15 1017.9 965.1 +25.5
21 18.08 ЮЗ 1 н/о 3/0
[Ac und]
+11.8 +10.1 89 +12 +12 1017.8 964.5
00 19.08 З 1 50 км 9/9 1000 м
[Sc]
+13.5 +11.7 89 +14 +14 1017.6 964.7
03 19.08 СЗ 2 50 км 10/10 1000 м
[Cb calv]
+15.0 +12.9 87 +15 +15 1018.5 965.8
06 19.08 СЗ 2 50 км {ливн. осадки} 9/9 1000 м
[Cb calv]
+17.8 +9.8 59 +18 +20 1017.8 965.6 +11.5
09 19.08 СЗ 3 50 км {ливн. осадки} 8/8 1000 м
[Sc]
+20.4 +9.3 49 +22 +24 комфорт 1017.2 965.5
12 19.08 СЗ 3 50 км {ливн. осадки} 6/6 1000 м
[Sc]
+19.8 +4.5 36 +21 +21 комфорт 1017.8 965.9
15 19.08 СЗ 2 н/о 8/8 1000 м
[Sc]
+18.6 +9.9 57 +20 +20 1018.4 966.3 +21.0
18 19.08 ЮВ 1 н/о 3/0
[Ac lent]
+12.1 +6.0 66 +12 +12 1021.6 968.1 +21.0 0.0
21 19.08 ЮЗ 1 н/о ясно +9.8 +6.6 80 +9 +9 1022.6 968.7
00 20.08 штиль 0 50 км ясно +5.1 +4.7 97 +4 +4 1024.1 969.2
03 20.08 С 1 50 км ясно +14.0 +7.6 65 +14 +22 1023.3 970.1
06 20.08 С 4 50 км 6/6 1000 м
[Cu med, cong]
+18.0 +4.0 39 +18 +22 1021.2 968.8 +4.6

 

Местоположение метеостанции Жангизтобе (Восточно-Казахстанская область, Казахстан): широта 49.22 долгота 81.22 высота над уровнем моря 455 м.

В архиве по умолчанию представлена погода в Жангизтобе за последнюю неделю. Архивные данные за месяц целиком и за предыдущие месяцы, начиная с января 2011 года, Вы можете получить, выбрав интересующий диапазон дат из раскрывающегося списка и нажав кнопку "Ввод!".

Внимание! Время в таблицах - всемирное. Для получения местного времени необходимо прибавить поправку, которая в Жангизтобе равна 6 ч.

Смотрите также архив погоды в соседних городах и на ближайших метеорологических станциях:

Погода в Кентерлау (Восточно-Казахстанская область, Казахстан) (29 км)
Погода в Шаре (Восточно-Казахстанская область, Казахстан) (42 км)
Погода в Шалабае (Восточно-Казахстанская область, Казахстан) (57 км)
Погода в Кокпектах (Восточно-Казахстанская область, Казахстан) (99 км)
Погода в Кайсенова (Восточно-Казахстанская область, Казахстан) (117 км)
Погода в Таврии (Восточно-Казахстанская область, Казахстан) (121 км)
Погода в Первомайском (Восточно-Казахстанская область, Казахстан) (130 км)
Погода в Шульбинске (Восточно-Казахстанская область, Казахстан) (130 км)
Погода в Глубоком (Восточно-Казахстанская область, Казахстан) (130 км)
Погода в Усть-Каменогорске (Восточно-Казахстанская область, Казахстан) (131 км)

Пояснения к столбцам:

Ветер - указаны скорость ветра в м/с - средняя за 10 мин, порывы в срок и между сроками (в фигурных скобках) и направление, откуда дует ветер: С - северный, СВ - северо-восточный, В - восточный, ЮВ - юго-восточный, Ю - южный, ЮЗ - юго-западный, З - западный, СЗ - северо-западный.
Видимость - горизонтальная дальность видимости в метрах или километрах. При видимости от 1 до 10 км при отсутствии осадков обычно наблюдается дымка, при ухудшении видимости до 1 км и менее - туман. В сухую погоду видимость может ухудшаться дымом, пылью или мглою.
Явления - указаны атмосферные явления, наблюдавшиеся в срок или в последний час перед сроком; фигурными скобками обозначены явления, наблюдавшиеся между сроками (за 1-3 часа до срока); квадратными скобками обозначены град или гололедные отложения с указанием их диаметра в мм.
Облачность - указаны через наклонную черту общая и нижняя облачность в баллах и высота нижней границы облаков в метрах; квадратными скобками обозначены формы облаков: Ci - перистые, Cs - перисто-слоистые, Cc - перисто-кучевые, Ac - высококучевые, As - высокослоистые, Sc - слоисто-кучевые, Ns - слоисто-дождевые, Cu - кучевые, Cb - кучево-дождевые. Подробнее классификацию облаков см. в Атласе облаков (PDF).
T - Температура воздуха - температура, измеренная на высоте 2 м над землей.
Td - Температура точки росы - температура, при понижении до которой содержащийся в воздухе водяной пар достигнет насыщения.
f - Относительная влажность воздуха - влажноcть воздуха, измеренная на высоте 2 м над землей.
Te - Эффективная температура - температура, которую ощущает одетый по сезону человек в тени. Характеристика душности погоды. При расчете учитывается влияние влажности воздуха и скорости ветра на теплоощущения человека.
Tes - Эффективная температура на солнце - температура, которую ощущает человек, с поправкой на солнечный нагрев. Характеристика знойности погоды. Зависит от высоты солнца над горизонтом, облачности и скорости ветра. Ночью, в пасмурную погоду, а также при ветре 12 м/с и более поправка равна нулю.
P - Атмосферное давление - приведенное к уровню моря атмосферное давление.
Po - Атмосферное давление - измеренное на уровне метеостанции атмосферное давление.
Tmin - Минимальная температура - минимум температуры воздуха на высоте 2 м над землей.
Tmax - Максимальная температура - максимум температуры воздуха на высоте 2 м над землей.
R - Количество осадков - Количество выпавших осадков за период времени, мм. При наведении курсора мыши на число - период времени, за который выпало указанное количество осадков.
R24 - Количество осадков - Количество выпавших осадков за 24 часа, мм.
S - Снежный покров - Высота снежного покрова, см. При наведении курсора мыши на число - состояние снежного покрова и степень покрытия местности в баллах.